TNS 0-2 (42914 NORAD) Tracking and Keplerian Element Data

This shows tracking and keplerian element data for the satellite.

Feedback or suggestion? Click here.




ElementValue
Catalog42914
NameTNS 0-2
Epoch Orbit5232
Epoch Day199.8596228
Epoch Year2018
RAAN206.0408
Inclination51.6347
Eccentricity0.0005072
Argument of Perigee342.1693
Mean Anonmoly17.9123
Mean Motion15.64967792
Decay Rate0.00013524
L11 42914U 98067ND 18199.85962280 .00013524 00000-0 14041-3 0 9996
L22 42914 51.6347 206.0408 0005072 342.1693 17.9123 15.64967792 52321

Live tracking and technical data element details for TNS 0-2 (NORAD 42914). TNS 0-2 can be tracked NOW for your location showing map with azimuth and elevation plus other details from your city location.

Track the satellite on the map from your city or location and see movement details for azimuth, elevation, latitude, longitude, range, height, and movement on the map or in text.







IsCatalogInMostPopularTable: catalog: 42914, numindb: 94
Update: records affected: 1



GetName: 42914 TNS 0-2

Hit Count: updated at: Mon, 23 Jul 2018 07:43:56 GMT